TimeCDT,TemperatureF,Dew PointF,Humidity,Sea Level PressureIn,VisibilityMPH,Wind Direction,Wind SpeedMPH,Gust SpeedMPH,PrecipitationIn,Events,Conditions,WindDirDegrees,DateUTC
12:37 AM,66.2,62.6,88,30.02,10.0,Calm,Calm,-,N/A,,Mostly Cloudy,0,2013-04-23 05:37:00
12:53 AM,66.0,63.0,90,30.02,10.0,Calm,Calm,-,N/A,,Mostly Cloudy,0,2013-04-23 05:53:00
1:53 AM,66.9,64.0,90,30.01,10.0,SE,3.5,-,N/A,,Mostly Cloudy,130,2013-04-23 06:53:00
2:34 AM,66.2,64.4,94,30.00,10.0,Calm,Calm,-,N/A,,Overcast,0,2013-04-23 07:34:00
2:53 AM,68.0,64.0,87,30.00,10.0,ESE,3.5,-,N/A,,Overcast,120,2013-04-23 07:53:00
3:24 AM,68.0,64.4,88,30.00,10.0,Variable,3.5,-,N/A,,Overcast,0,2013-04-23 08:24:00
3:53 AM,68.0,64.9,90,29.99,10.0,SE,3.5,-,N/A,,Overcast,130,2013-04-23 08:53:00
4:01 AM,68.0,64.4,88,29.99,10.0,Variable,4.6,-,N/A,,Mostly Cloudy,0,2013-04-23 09:01:00
4:53 AM,68.0,64.4,88,30.00,10.0,SSE,6.9,-,N/A,,Mostly Cloudy,150,2013-04-23 09:53:00
5:53 AM,69.1,64.0,84,29.99,10.0,Variable,3.5,-,N/A,,Overcast,0,2013-04-23 10:53:00
6:05 AM,69.8,64.4,83,30.00,10.0,Variable,5.8,-,N/A,,Overcast,0,2013-04-23 11:05:00
6:53 AM,69.1,64.0,84,30.01,10.0,Variable,5.8,-,N/A,,Overcast,0,2013-04-23 11:53:00
7:53 AM,69.1,64.9,87,30.03,10.0,Variable,4.6,-,N/A,,Overcast,0,2013-04-23 12:53:00
8:53 AM,71.1,64.9,81,30.03,10.0,SE,8.1,-,N/A,,Overcast,140,2013-04-23 13:53:00
9:53 AM,73.0,66.0,79,30.04,10.0,Variable,4.6,-,N/A,,Overcast,0,2013-04-23 14:53:00
10:53 AM,75.9,66.9,74,30.05,4.0,South,12.7,-,N/A,,Haze,180,2013-04-23 15:53:00
11:01 AM,78.8,68.0,69,30.04,10.0,South,15.0,20.7,N/A,,Mostly Cloudy,170,2013-04-23 16:01:00
11:53 AM,79.0,66.9,66,30.04,10.0,South,13.8,21.9,N/A,,Mostly Cloudy,170,2013-04-23 16:53:00
12:00 PM,78.8,66.2,65,30.03,10.0,South,15.0,24.2,N/A,,Mostly Cloudy,170,2013-04-23 17:00:00
12:36 PM,78.8,66.2,65,30.02,10.0,South,19.6,26.5,N/A,,Mostly Cloudy,180,2013-04-23 17:36:00
12:46 PM,80.6,66.2,61,30.02,10.0,South,13.8,24.2,N/A,,Mostly Cloudy,190,2013-04-23 17:46:00
12:53 PM,79.0,66.9,66,30.02,10.0,South,13.8,20.7,N/A,,Mostly Cloudy,190,2013-04-23 17:53:00
1:53 PM,80.6,66.2,61,30.01,10.0,South,16.1,20.7,N/A,,Mostly Cloudy,180,2013-04-23 18:53:00
2:53 PM,79.0,66.0,64,30.00,10.0,South,12.7,-,N/A,,Mostly Cloudy,170,2013-04-23 19:53:00
3:00 PM,80.6,66.2,61,30.00,10.0,South,10.4,18.4,N/A,,Mostly Cloudy,180,2013-04-23 20:00:00
3:53 PM,80.1,66.9,64,29.97,10.0,South,12.7,-,N/A,,Partly Cloudy,190,2013-04-23 20:53:00
4:53 PM,79.0,66.0,64,29.96,10.0,South,12.7,-,N/A,,Partly Cloudy,180,2013-04-23 21:53:00
5:53 PM,77.0,66.9,71,29.95,10.0,South,10.4,-,N/A,,Clear,180,2013-04-23 22:53:00
6:53 PM,75.0,68.0,79,29.96,10.0,South,9.2,-,N/A,,Scattered Clouds,180,2013-04-23 23:53:00
7:53 PM,73.9,68.0,82,29.97,10.0,South,8.1,-,N/A,,Partly Cloudy,170,2013-04-24 00:53:00
8:38 PM,73.4,68.0,83,29.99,10.0,South,6.9,-,N/A,,Mostly Cloudy,170,2013-04-24 01:38:00
8:53 PM,73.0,68.0,84,29.99,10.0,SSE,5.8,-,N/A,,Mostly Cloudy,160,2013-04-24 01:53:00
9:03 PM,73.4,68.0,83,30.00,10.0,SSE,9.2,17.3,N/A,,Partly Cloudy,160,2013-04-24 02:03:00
9:53 PM,73.0,66.9,81,30.01,10.0,South,5.8,-,N/A,,Clear,170,2013-04-24 02:53:00
10:53 PM,72.0,68.0,87,30.01,10.0,South,5.8,-,N/A,,Clear,170,2013-04-24 03:53:00
11:53 PM,71.1,68.0,90,30.01,10.0,Variable,4.6,-,N/A,,Overcast,0,2013-04-24 04:53:00